sat.trackr.live / text

‹ back to catalog

STARLINK-36838

NORAD 67855 · 2026-034F

PAYLOAD ACTIVE UNKNOWN

§ Identity

Operator
Country
US
Launch date
2026-02-20
Launch site
AFETR
Launch vehicle
Mass (kg)
RCS (m²)

Purposes: comms

External: N2YO · Heavens-Above · Gunter

§ Orbital elements

Epoch: 2026-05-25T04:58:33.013056Z

Period
94.11 min
Inclination
53.1566°
Eccentricity
0.0001189
Mean motion
15.30198794 rev/d
Perigee alt
474.4 km
Apogee alt
476.0 km
Semi-major
6,853.4 km
B*
3.7400e-4
RAAN
208.6304°
Arg perigee
86.6676°
Mean anomaly
273.4461°
Rev number
1,575

§ Raw data

STARLINK-368381 67855U 26034F   26145.20732654  .00010733  00000+0  37400-3 0  99932 67855  53.1566 208.6304 0001189  86.6676 273.4461 15.30198794 15752

JSON: /api/v1/satellites/67855 · /tle

For live sub-satellite position, see the globe view (requires WebGL).

§ Visibility from observer

Set your observer location to see the next 7 days of passes ≥ 10°. The values pass through the URL so the page stays shareable.

No JS? Fill the form by hand. The geolocation button needs JavaScript.